W0RMT-13 Weather Reports


Display with metric or nautical units.
time (UTC)temp
F
wind
direction
speed
MPH
gust
MPH
rain 1hr
in
rain 24hr
in
rain mn
in
humidity
%
barometer
mb
20240724131851 59 185 0.0 0.0 0.00 0.00 0.00 67 1025.7
20240724131724 59 185 0.0 0.0 0.00 0.00 0.00 67 1025.7
20240724131519 59 185 0.0 0.0 0.00 0.00 0.00 69 1025.7
20240724130445 58 192 0.0 0.0 0.00 0.00 0.00 73 1025.7
20240724130255 58 180 0.0 0.0 0.00 0.00 0.00 71 1025.7
20240724125854 58 180 0.0 0.0 0.00 0.00 0.00 71 1025.7
20240724125243 57 183 0.0 0.0 0.00 0.00 0.00 71 1025.7
20240724125059 57 183 0.0 0.0 0.00 0.00 0.00 70 1025.7
20240724124720 57 185 0.0 0.0 0.00 0.00 0.00 71 1025.7
20240724123955 57 184 0.0 0.0 0.00 0.00 0.00 70 1025.7
20240724123807 57 188 0.0 0.0 0.00 0.00 0.00 71 1025.7
20240724123150 57 189 0.0 0.0 0.00 0.00 0.00 70 1025.7
20240724122813 57 188 0.0 0.0 0.00 0.00 0.00 72 1025.7
20240724122645 57 188 0.0 0.0 0.00 0.00 0.00 71 1025.7
20240724122140 57 186 0.0 0.0 0.00 0.00 0.00 71 1025.7
20240724121810 57 187 0.0 0.0 0.00 0.00 0.00 71 1025.7
20240724121731 57 191 0.0 0.0 0.00 0.00 0.00 71 1025.7
20240724121027 57 190 0.0 0.0 0.00 0.00 0.00 70 1025.4
20240724120859 57 190 0.0 0.0 0.00 0.00 0.00 70 1025.4
20240724120152 57 190 0.0 0.0 0.00 0.00 0.00 70 1025.4
20240724115711 57 192 0.0 0.0 0.00 0.00 0.00 70 1025.4
20240724115531 57 194 0.0 0.0 0.00 0.00 0.00 71 1025.4
20240724114849 57 189 0.0 0.0 0.00 0.00 0.00 69 1025.4
20240724114655 57 190 0.0 0.0 0.00 0.00 0.00 69 1025.4
20240724114158 58 191 0.0 0.0 0.00 0.00 0.00 72 1025.4
20240724113656 58 192 0.0 0.0 0.00 0.00 0.00 67 1025.4
20240724113548 58 194 0.0 0.0 0.00 0.00 0.00 67 1025.7
20240724113427 58 189 0.0 0.0 0.00 0.00 0.00 68 1025.4
20240724112657 58 191 0.0 0.0 0.00 0.00 0.00 67 1025.4
20240724112526 58 191 0.0 0.0 0.00 0.00 0.00 66 1025.4
20240724112156 58 191 0.0 0.0 0.00 0.00 0.00 65 1025.4
20240724111625 58 191 0.0 0.0 0.00 0.00 0.00 65 1025.4
20240724111457 58 191 0.0 0.0 0.00 0.00 0.00 64 1025.4
20240724111057 58 191 0.0 0.0 0.00 0.00 0.00 65 1025.4
20240724110556 58 189 0.0 0.0 0.00 0.00 0.00 64 1025.4
20240724110445 58 187 0.0 0.0 0.00 0.00 0.00 63 1025.4
20240724110328 58 187 0.0 0.0 0.00 0.00 0.00 61 1025.4
20240724105517 58 194 0.0 0.0 0.00 0.00 0.00 63 1025.0
20240724105422 58 194 0.0 0.0 0.00 0.00 0.00 63 1025.0
20240724105225 58 194 0.0 0.0 0.00 0.00 0.00 65 1025.0
20240724104429 59 187 0.0 0.0 0.00 0.00 0.00 64 1025.0
20240724104356 59 187 0.0 0.0 0.00 0.00 0.00 64 1025.0
20240724103929 59 191 0.0 0.0 0.00 0.00 0.00 64 1025.0
20240724103409 59 175 0.0 0.0 0.00 0.00 0.00 63 1024.5
20240724103341 59 187 0.0 0.0 0.00 0.00 0.00 63 1024.5
20240724102844 60 189 0.0 0.0 0.00 0.00 0.00 62 1025.0
20240724102319 60 181 0.0 0.0 0.00 0.00 0.00 62 1025.0
20240724101734 60 187 0.0 0.0 0.00 0.00 0.00 60 1025.0
20240724101730 60 183 0.0 0.0 0.00 0.00 0.00 61 1024.5
20240724101333 60 187 0.0 0.0 0.00 0.00 0.00 60 1025.0
20240724100708 61 188 0.0 0.0 0.00 0.00 0.00 58 1025.0
20240724100156 61 193 0.0 0.0 0.00 0.00 0.00 58 1025.0
20240724095657 62 185 0.0 0.0 0.00 0.00 0.00 58 1025.0
20240724095156 62 186 0.0 0.0 0.00 0.00 0.00 55 1024.5
20240724095123 62 186 0.0 0.0 0.00 0.00 0.00 56 1024.5
20240724094557 62 189 0.0 0.0 0.00 0.00 0.00 58 1024.5
20240724094130 62 183 0.0 0.0 0.00 0.00 0.00 55 1024.5
20240724094056 62 182 0.0 0.0 0.00 0.00 0.00 54 1024.5
20240724093511 62 184 0.0 0.0 0.00 0.00 0.00 54 1024.5
20240724093108 61 184 0.0 0.0 0.00 0.00 0.00 54 1024.5
20240724092957 61 184 0.0 0.0 0.00 0.00 0.00 53 1024.5
20240724092422 61 184 0.0 0.0 0.00 0.00 0.00 52 1024.5
20240724092048 61 188 0.0 0.0 0.00 0.00 0.00 54 1024.5
20240724091832 61 183 0.0 0.0 0.00 0.00 0.00 55 1024.2
20240724091308 61 205 0.0 0.0 0.00 0.00 0.00 57 1024.5
20240724091025 61 188 0.0 0.0 0.00 0.00 0.00 57 1024.5
20240724090756 61 188 0.0 0.0 0.00 0.00 0.00 57 1024.5
20240724090256 61 188 0.0 0.0 0.00 0.00 0.00 59 1024.5
20240724085938 61 188 0.0 0.0 0.00 0.00 0.00 57 1024.5
20240724085722 61 188 0.0 0.0 0.00 0.00 0.00 58 1024.5
20240724085156 61 188 0.0 0.0 0.00 0.00 0.00 56 1024.5
20240724084933 61 188 0.0 0.0 0.00 0.00 0.00 57 1024.5
20240724084657 61 188 0.0 0.0 0.00 0.00 0.00 58 1024.5
20240724084156 62 188 0.0 0.0 0.00 0.00 0.00 57 1024.5
20240724083928 62 188 0.0 0.0 0.00 0.00 0.00 56 1024.2
20240724083923 62 188 0.0 0.0 0.00 0.00 0.00 57 1024.2
20240724083156 62 190 0.0 0.0 0.00 0.00 0.00 55 1024.5
20240724082856 62 190 0.0 0.0 0.00 0.00 0.00 56 1024.5
20240724082657 62 190 0.0 0.0 0.00 0.00 0.00 57 1024.5
20240724082122 62 190 0.0 0.0 0.00 0.00 0.00 55 1024.5
20240724081857 62 190 0.0 0.0 0.00 0.00 0.00 57 1024.2
20240724081556 62 190 0.0 0.0 0.00 0.00 0.00 56 1024.2
20240724081057 63 188 0.0 0.0 0.00 0.00 0.00 56 1024.2
20240724080820 63 188 0.0 0.0 0.00 0.00 0.00 55 1024.2
20240724080556 63 188 0.0 0.0 0.00 0.00 0.00 57 1024.2
20240724080056 63 188 0.0 0.0 0.00 0.00 0.00 56 1024.5
20240724075827 63 188 0.0 0.0 0.00 0.00 0.00 55 1024.5
20240724075757 63 188 0.0 0.0 0.00 0.00 0.00 55 1024.5
20240724075327 64 188 0.0 0.0 0.00 0.00 0.00 54 1024.5
20240724074756 64 188 0.0 0.0 0.00 0.00 0.00 53 1024.5
20240724074556 64 188 0.0 0.0 0.00 0.00 0.00 52 1024.5
20240724074053 64 188 0.0 0.0 0.00 0.00 0.00 53 1024.2
20240724073733 64 188 0.0 0.0 0.00 0.00 0.00 53 1024.5
20240724073529 63 188 0.0 0.0 0.00 0.00 0.00 53 1024.5
20240724073258 63 182 0.0 0.0 0.00 0.00 0.00 52 1024.5
20240724072722 63 184 0.0 2.0 0.00 0.00 0.00 52 1024.5
20240724072456 63 192 0.0 2.0 0.00 0.00 0.00 52 1024.5
20240724071957 63 188 0.0 2.0 0.00 0.00 0.00 53 1024.5
20240724071727 63 182 0.0 0.0 0.00 0.00 0.00 53 1024.5
20240724071656 63 142 0.0 0.0 0.00 0.00 0.00 56 1024.5
20240724070923 63 184 0.0 0.0 0.00 0.00 0.00 57 1024.5
20240724070641 63 184 0.0 0.0 0.00 0.00 0.00 54 1024.5
20240724070356 63 184 0.0 0.0 0.00 0.00 0.00 55 1024.5
20240724065857 63 184 0.0 0.0 0.00 0.00 0.00 56 1024.5
20240724065620 64 184 0.0 0.0 0.00 0.00 0.00 55 1024.5
20240724065610 64 184 0.0 0.0 0.00 0.00 0.00 56 1024.5
20240724064814 64 180 0.0 0.0 0.00 0.00 0.00 54 1024.5
20240724064556 64 180 0.0 0.0 0.00 0.00 0.00 53 1024.5
20240724064256 64 186 0.0 0.0 0.00 0.00 0.00 53 1024.5
20240724063725 64 183 0.0 0.0 0.00 0.00 0.00 52 1024.5
20240724063557 64 183 0.0 0.0 0.00 0.00 0.00 52 1024.5
20240724063133 64 187 0.0 0.0 0.00 0.00 0.00 54 1024.5
20240724062611 65 187 0.0 0.0 0.00 0.00 0.00 54 1024.5
20240724062545 65 187 0.0 0.0 0.00 0.00 0.00 53 1024.5
20240724062324 65 189 0.0 0.0 0.00 0.00 0.00 54 1024.5
20240724062026 66 204 0.0 0.0 0.00 0.00 0.00 53 1024.5
20240724061627 66 204 0.0 0.0 0.00 0.00 0.00 53 1024.5
20240724060934 66 206 0.0 0.0 0.00 0.00 0.00 53 1024.5
20240724060456 67 195 0.0 0.0 0.00 0.00 0.00 52 1024.5
20240724060408 67 193 0.0 0.0 0.00 0.00 0.00 52 1024.5
20240724055857 67 170 0.0 0.0 0.00 0.00 0.00 51 1024.5
20240724055414 67 209 0.0 0.0 0.00 0.00 0.00 51 1024.5
20240724055347 67 193 0.0 0.0 0.00 0.00 0.00 50 1024.5
20240724054824 68 171 0.0 0.0 0.00 0.00 0.00 48 1024.5
20240724054505 68 189 0.0 2.0 0.00 0.00 0.00 47 1024.5
20240724054353 68 204 0.0 2.0 0.00 0.00 0.00 47 1024.2
20240724053939 67 178 0.0 2.0 0.00 0.00 0.00 45 1024.5
20240724053328 67 189 0.0 0.0 0.00 0.00 0.00 45 1024.2
20240724053156 67 179 0.0 0.0 0.00 0.00 0.00 46 1024.2
20240724052647 67 186 0.0 0.0 0.00 0.00 0.00 46 1024.2
20240724052354 68 188 0.0 0.0 0.00 0.00 0.00 46 1024.2
20240724052311 68 195 0.0 0.0 0.00 0.00 0.00 45 1024.2
20240724051532 68 180 0.0 0.0 0.00 0.00 0.00 46 1024.2
20240724051256 68 187 0.0 0.0 0.00 0.00 0.00 48 1024.2
20240724051008 68 188 0.0 0.0 0.00 0.00 0.00 48 1024.2
20240724050456 68 184 0.0 0.0 0.00 0.00 0.00 47 1024.2
20240724050229 68 186 0.0 0.0 0.00 0.00 0.00 46 1024.2
20240724045947 69 186 0.0 0.0 0.00 0.00 0.00 46 1024.2
20240724045653 69 192 0.0 0.0 0.00 0.00 0.00 45 1024.2
20240724045209 69 192 0.0 0.0 0.00 0.00 0.00 45 1024.2
20240724044832 69 188 0.0 2.0 0.00 0.00 0.00 44 1024.2
20240724044308 69 185 0.0 2.0 0.00 0.00 0.00 43 1024.2
20240724044156 69 182 0.0 2.0 0.00 0.00 0.00 43 1024.2
20240724043756 69 194 0.0 0.0 0.00 0.00 0.00 44 1024.2
20240724043256 69 192 0.0 0.0 0.00 0.00 0.00 45 1024.2
20240724043153 69 189 0.0 0.0 0.00 0.00 0.00 44 1024.2
20240724042722 69 187 0.0 0.0 0.00 0.00 0.00 44 1024.2
20240724042156 69 185 0.0 0.0 0.00 0.00 0.00 45 1023.8
20240724042128 69 194 0.0 0.0 0.00 0.00 0.00 44 1023.8
20240724041629 69 184 0.0 0.0 0.00 0.00 0.00 44 1024.2
20240724041112 69 184 0.0 0.0 0.00 0.00 0.00 44 1024.2
20240724040820 69 186 0.0 0.0 0.00 0.00 0.00 45 1024.2
20240724040050 69 187 0.0 0.0 0.00 0.00 0.00 45 1023.8
20240724040022 69 188 0.0 0.0 0.00 0.00 0.00 45 1023.8
20240724035432 69 183 0.0 0.0 0.00 0.00 0.00 46 1024.2
20240724035203 70 186 0.0 0.0 0.00 0.00 0.00 46 1023.8
20240724035042 70 193 0.0 0.0 0.00 0.00 0.00 47 1023.8
20240724034356 70 189 0.0 0.0 0.00 0.00 0.00 47 1023.8
20240724034008 70 192 0.0 0.0 0.00 0.00 0.00 46 1023.8
20240724033857 70 192 0.0 0.0 0.00 0.00 0.00 46 1023.8
20240724033357 71 191 0.0 0.0 0.00 0.00 0.00 46 1023.8
20240724032956 71 190 0.0 0.0 0.00 0.00 0.00 46 1023.8
20240724032825 71 190 0.0 0.0 0.00 0.00 0.00 45 1023.8
20240724032256 71 190 0.0 0.0 0.00 0.00 0.00 44 1023.8
20240724032028 72 189 0.0 0.0 0.00 0.00 0.00 44 1023.4
20240724031953 71 186 0.0 0.0 0.00 0.00 0.00 44 1023.8
20240724031446 72 187 0.0 0.0 0.00 0.00 0.00 43 1023.8
20240724030928 72 189 0.0 0.0 0.00 0.00 0.00 43 1023.4
20240724030656 72 192 0.0 0.0 0.00 0.00 0.00 43 1023.4
20240724030154 72 194 0.0 0.0 0.00 0.00 0.00 43 1023.8
20240724025856 72 174 0.0 0.0 0.00 0.00 0.00 43 1023.4
20240724025629 73 188 0.0 0.0 0.00 0.00 0.00 43 1023.8
20240724025129 73 186 0.0 0.0 0.00 0.00 0.00 44 1023.4
20240724024839 73 192 0.0 0.0 0.00 0.00 0.00 43 1023.8
20240724024822 73 188 0.0 0.0 0.00 0.00 0.00 43 1023.4
20240724024057 73 187 0.0 0.0 0.00 0.00 0.00 43 1023.4
20240724023756 74 186 0.0 0.0 0.00 0.00 0.00 43 1023.8
20240724023518 74 184 0.0 0.0 0.00 0.00 0.00 42 1023.8
20240724022928 74 163 0.0 0.0 0.00 0.00 0.00 42 1023.4
20240724022755 75 186 0.0 0.0 0.00 0.00 0.00 42 1023.4
20240724022356 75 188 0.0 0.0 0.00 0.00 0.00 41 1023.4
20240724021856 76 187 0.0 0.0 0.00 0.00 0.00 41 1023.4
20240724021748 76 187 0.0 0.0 0.00 0.00 0.00 41 1023.4
20240724021356 76 185 0.0 0.0 0.00 0.00 0.00 40 1023.4
20240724020901 77 186 0.0 0.0 0.00 0.00 0.00 40 1023.4
20240724020857 77 188 0.0 0.0 0.00 0.00 0.00 41 1023.4
20240724020735 77 183 0.0 0.0 0.00 0.00 0.00 40 1023.4
20240724015853 78 189 0.0 0.0 0.00 0.00 0.00 39 1023.0
20240724015656 78 185 0.0 2.0 0.00 0.00 0.00 39 1023.4
20240724015329 78 183 0.0 2.0 0.00 0.00 0.00 38 1023.4
20240724014827 78 208 1.0 2.0 0.00 0.00 0.00 37 1023.4
20240724014656 79 180 0.0 0.0 0.00 0.00 0.00 39 1023.4
20240724014256 79 187 0.0 0.0 0.00 0.00 0.00 40 1023.4
20240724013756 79 183 0.0 0.0 0.00 0.00 0.00 39 1023.4
20240724013656 80 191 0.0 0.0 0.00 0.00 0.00 40 1023.4
20240724013256 80 195 0.0 0.0 0.00 0.00 0.00 41 1023.4
20240724012723 80 191 0.0 0.0 0.00 0.00 0.00 39 1023.0
20240724012629 80 187 0.0 0.0 0.00 0.00 0.00 38 1023.0
20240724012403 81 184 0.0 0.0 0.00 0.00 0.00 38 1023.0
20240724011609 81 188 0.0 0.0 0.00 0.00 0.00 38 1023.0
20240724011053 81 187 0.0 0.0 0.00 0.00 0.00 37 1023.0
20240724010602 81 188 0.0 0.0 0.00 0.00 0.00 38 1023.0
20240724010552 81 144 0.0 0.0 0.00 0.00 0.00 35 1023.0
20240724005548 0 0.0 0.0 0.00 0.00 0.00
20240723221000 0 0.0 0.0 0.00 0.00 0.00
20240723215958 0 0.0 0.0 0.00 0.00 0.00
20240723214705 0 0.0 0.0 0.00 0.00 0.00
20240723214308 0 0.0 0.0 0.00 0.00 0.00
20240723205624 0 0.0 0.0 0.00 0.00 0.00
20240723204617 0 0.0 0.0 0.00 0.00 0.00
20240723203735 0 0.0 0.0 0.00 0.00 0.00
20240723201153 0 0.0 0.0 0.00 0.00 0.00
20240723195709 0 0.0 0.0 0.00 0.00 0.00
20240723192720 0 0.0 0.0 0.00 0.00 0.00
20240723192013 0 0.0 0.0 0.00 0.00 0.00
20240723191701 0 0.0 0.0 0.00 0.00 0.00
20240723191535 0 0.0 0.0 0.00 0.00 0.00
20240723185629 0 0.0 0.0 0.00 0.00 0.00
20240723184656 0 0.0 0.0 0.00 0.00 0.00
20240723184133 0 0.0 0.0 0.00 0.00 0.00
20240723182238 85 201 0.0 6.0 0.00 0.00 0.00 31 1023.8
20240723182024 85 141 0.0 6.0 0.00 0.00 0.00 29 1023.8
20240723181555 85 93 0.0 6.0 0.00 0.00 0.00 29 1023.8
20240723180916 85 33 3.0 6.0 0.00 0.00 0.00 32 1023.4
20240723180553 84 151 0.0 0.0 0.00 0.00 0.00 29 1023.4
20240723175610 85 76 4.0 6.0 0.00 0.00 0.00 33 1023.8
20240723174251 84 177 0.0 0.0 0.00 0.00 0.00 34 1023.8
20240723173006 83 177 0.0 0.0 0.00 0.00 0.00 34 1023.8
20240723172033 83 187 0.0 0.0 0.00 0.00 0.00 35 1023.8
20240723171344 83 163 3.0 6.0 0.00 0.00 0.00 37 1023.8
20240723170714 83 320 0.0 6.0 0.00 0.00 0.00 37 1023.8
20240723170106 83 320 0.0 6.0 0.00 0.00 0.00 37 1023.8
20240723165803 82 125 0.0 6.0 0.00 0.00 0.00 35 1023.8
20240723164955 82 125 0.0 6.0 0.00 0.00 0.00 35 1023.8
20240723164910 82 188 0.0 0.0 0.00 0.00 0.00 36 1023.8
20240723164301 82 207 0.0 6.0 0.00 0.00 0.00 37 1024.2
20240723163928 82 189 2.0 6.0 0.00 0.00 0.00 36 1023.8
20240723163454 81 202 0.0 0.0 0.00 0.00 0.00 39 1023.8
20240723162728 80 185 0.0 0.0 0.00 0.00 0.00 37 1023.8
20240723161419 80 192 0.0 0.0 0.00 0.00 0.00 39 1024.2
20240723160857 79 127 0.0 0.0 0.00 0.00 0.00 43 1023.8
20240723160027 79 188 0.0 0.0 0.00 0.00 0.00 39 1023.8
20240723155500 79 156 0.0 6.0 0.00 0.00 0.00 42 1023.8
20240723154839 78 254 3.0 6.0 0.00 0.00 0.00 41 1023.8
20240723154308 78 143 0.0 0.0 0.00 0.00 0.00 43 1023.8
20240723153630 77 181 0.0 0.0 0.00 0.00 0.00 42 1023.8
20240723153119 77 181 0.0 0.0 0.00 0.00 0.00 42 1023.8
20240723152846 76 190 0.0 0.0 0.00 0.00 0.00 43 1023.8
20240723151952 0 0.0 0.0 0.00 0.00 0.00 1024.2
20240723150506 75 188 0.0 0.0 0.00 0.00 0.00 41 1023.8
20240723145959 74 184 0.0 0.0 0.00 0.00 0.00 47 1024.2
20240723144828 72 9 0.0 6.0 0.00 0.00 0.00 49 1024.2
20240723143713 0 0.0 0.0 0.00 0.00 0.00 1023.8
20240723142426 68 189 0.0 0.0 0.00 0.00 0.00 54 1024.2
20240723141603 67 186 0.0 0.0 0.00 0.00 0.00 57 1024.2
20240723141055 65 191 0.0 0.0 0.00 0.00 0.00 63 1024.2
20240723140318 64 190 0.0 0.0 0.00 0.00 0.00 65 1024.2
20240723135803 64 168 0.0 0.0 0.00 0.00 0.00 64 1024.2
20240723135630 62 183 0.0 0.0 0.00 0.00 0.00 67 1024.2
20240723134508 61 183 0.0 0.0 0.00 0.00 0.00 66 1024.2
20240723133840 61 181 0.0 0.0 0.00 0.00 0.00 68 1024.2
20240723133145 60 182 0.0 0.0 0.00 0.00 0.00 69 1024.2
20240723132901 59 180 0.0 0.0 0.00 0.00 0.00 68 1024.2
20240723132509 58 183 0.0 0.0 0.00 0.00 0.00 68 1024.2